Showing default

COSMOS 2386, 27057

Orbit data source: Space-Track

COSMOS 2386, 27057 is a payload satellite owned by KVR (CIS) in LEO that was launched on Fri, 28 Dec 2001 UTC via a TSIKLON-3 launch vehicle from the Plesetsk Missile And Space Complex (PKMTR). Payload-class satellites include a variety of spacecraft equipped with specific instruments for various scientific and technological missions. These include communications satellites like Starlink; space stations such as the ISS; scientific satellites like the Hubble; Earth observation satellites from companies like Planet Labs, Umbra, and HawkEye 360; GPS; miniature CubeSats for education and research; and military/defense satellites.

Loading next visibility...
Identifier
27057, 2001-058C
Orbit
LEO
Country
Flag of CISCIS
Related business
Manufacturer
NPO PM
Mission
Operational Defense Communications
Bus & Motor
STRELA-3, Unknown motor
Mass
225 kg wet, 225 kg dry
Launch date (UTC)
2001-12-28 (24 years ago)
Launch vehicle
TSIKLON-3
Launch site
Plesetsk Missile And Space Complex (PKMTR)
Object type
Payload
Rocket body
Debris
Shape & HBR
Cyl + 1 Arm, 3.5 m
Radar Cross Section
1.257 m², Medium (>0.1 m² and < 1m²)

Expand to show TLE details & history
Last TLE update: 9 hours ago

TLE from 9 hours ago
0 COSMOS 2386
1 27057U 01058C   25355.29321610 -.00000002  00000-0 -73404-4 0  9995
2 27057  82.5446 328.0630 0001482  87.4422 272.6838 12.61611629104079
Epoch: 2025-12-21T07:02Z
TLE epoch observation values (Epoch: 2025-12-21T07:02:13.871Z)
Latitude
-0.00002°
Longitude
132.39746°
Altitude
1,418.973 km
Speed
7.151 km/s
True Right ascension
21h 52m 15s
True Declination
0° 00' 00"
Sunlit
Object was in daylight at epoch
Visualization orbit readout
Latitude
Unknown
Longitude
Unknown
Altitude
Unknown
Speed
Unknown
Apparent Right ascension
Unknown
Apparent Declination
Unknown
Sunlit
N/A
Visualization observer readout
Local Sidereal Time
14:57:17
Azimuth
Unknown
Elevation
Unknown
Doppler factor
Unknown
Orbital elements
Apogee altitude
1,414.777 km
Perigee altitude
1,412.468 km
Semi-major axis
7,791.759 km
Eccentricity
0.00015
Inclination
82.5446°
RAAN
328.063°
Arg. of periapsis
87.4422°
True anomaly
272.66684°
Mean anomaly
272.6838°
Eccentric anomaly
272.67532°
Mean motion
3.15566 °/min
Orbital period
114.08 mins
BSTAR
-0.000073404
Loading maneuver chart data...
Computing Atmospheric mass density...
Loading historical data...
Loading historical data...
Loading historical data...
Loading historical data...
Loading historical data...
Loading historical data...
Loading historical data...

Documentation

Showing up to 5 results
|